1483999201.24,46563,4.63,72728.0,-17.21,-20.59,-22.77,0,*69
1483999202.52,46564,4.63,72728.8,-17.17,-20.53,-22.73,0,*65
1483999203.76,46565,4.69,72728.3,-17.17,-20.69,-22.87,0,*66
1483999205.0,46566,4.69,72734.3,-17.17,-20.25,-22.37,0,*66
1483999206.26,46567,4.63,72730.8,-17.17,-20.05,-22.21,0,*62
1483999207.49,46568,4.69,72734.8,-17.17,-20.25,-22.53,0,*6A
1483999208.74,46569,4.63,72738.0,-17.21,-20.43,-22.57,0,*6A
1483999210.02,46570,4.63,72738.3,-17.21,-20.53,-22.73,0,*65
1483999211.26,46571,4.63,72732.8,-17.17,-20.39,-22.53,0,*6F
1483999212.5,46572,4.63,72736.8,-17.21,-20.39,-22.57,0,*6D
1483999213.77,46573,4.63,72732.0,-17.17,-20.53,-22.83,0,*6C
1483999215.05,46574,4.69,72734.8,-17.17,-20.53,-22.73,0,*64
1483999216.3,46575,4.63,72730.5,-17.17,-20.69,-22.97,0,*66
1483999217.56,46576,4.63,72736.5,-17.17,-20.79,-22.87,0,*65
1483999218.82,46577,4.63,72730.5,-17.17,-20.79,-22.83,0,*60
1483999220.09,46578,4.63,72728.3,-17.17,-20.83,-22.97,0,*6F
1483999221.34,46579,4.63,72730.5,-17.21,-20.89,-23.09,0,*67
1483999222.61,46580,4.63,72732.0,-17.17,-20.83,-23.09,0,*6E
1483999223.85,46581,4.69,72738.0,-17.17,-20.93,-23.09,0,*6E
1483999225.09,46582,4.63,72724.0,-17.17,-20.93,-22.97,0,*6B
1483999226.35,46583,4.69,72730.8,-17.21,-20.73,-22.77,0,*6F
1483999227.59,46584,4.63,72732.5,-17.17,-20.63,-22.83,0,*67
1483999228.83,46585,4.63,72730.0,-17.21,-20.73,-22.93,0,*63
1483999230.07,46586,4.63,72736.5,-17.17,-20.69,-22.87,0,*6B
1483999231.33,46587,4.63,72732.5,-17.21,-20.83,-22.93,0,*6E
1483999232.58,46588,4.63,72734.8,-17.21,-20.43,-22.63,0,*62
1483999233.84,46589,4.63,72734.0,-17.17,-20.49,-22.53,0,*6F
1483999235.11,46590,4.63,72738.0,-17.21,-20.53,-22.63,0,*6A
1483999236.37,46591,4.63,72730.8,-17.17,-20.19,-22.41,0,*60
1483999237.59,46592,4.63,72732.3,-17.21,-20.29,-22.37,0,*64
1483999238.85,46593,4.69,72732.8,-17.17,-20.39,-22.73,0,*61
1483999240.12,46594,4.63,72734.3,-17.17,-20.39,-22.73,0,*66
1483999241.38,46595,4.63,72728.5,-17.21,-20.59,-22.73,0,*64
1483999242.59,46596,4.63,72734.3,-17.13,-20.25,-22.41,0,*6C
1483999243.83,46597,4.63,72734.8,-17.13,-20.35,-22.37,0,*6D
1483999245.04,46598,4.63,72734.8,-17.13,-20.25,-22.57,0,*65
1483999246.28,46599,4.63,72734.8,-17.13,-20.19,-22.41,0,*6C
1483999247.51,46600,4.63,72732.3,-17.13,-20.35,-22.67,0,*65
1483999248.78,46601,4.63,72728.0,-17.17,-20.39,-22.73,0,*69
1483999250.02,46602,4.63,72728.3,-17.13,-20.49,-22.67,0,*6C
1483999251.26,46603,4.63,72734.3,-17.13,-20.63,-22.73,0,*60
1483999252.51,46604,4.63,72728.5,-17.13,-20.79,-22.83,0,*63
1483999253.77,46605,4.69,72730.5,-17.13,-20.79,-23.03,0,*6B
1483999255.04,46606,4.63,72730.5,-17.17,-20.93,-23.03,0,*68
1483999256.33,46607,4.63,72730.8,-17.17,-20.83,-23.03,0,*68
1483999257.6,46608,4.69,72728.8,-17.17,-20.93,-23.03,0,*66
1483999258.87,46609,4.63,72730.0,-17.21,-20.89,-23.03,0,*69
1483999260.13,46610,4.63,72728.8,-17.17,-20.79,-22.97,0,*67
1483999261.37,46611,4.63,72734.5,-17.17,-20.93,-22.97,0,*62
1483999262.67,46612,4.69,72732.8,-17.17,-20.83,-23.03,0,*6C
1483999263.94,46613,4.63,72732.0,-17.17,-20.93,-23.19,0,*67
1483999265.21,46614,4.63,72732.8,-17.17,-20.99,-23.09,0,*6B
1483999266.47,46615,4.63,72730.8,-17.17,-20.93,-23.03,0,*6A
1483999267.71,46616,4.63,72734.3,-17.17,-20.69,-22.83,0,*65
1483999269.0,46617,4.63,72728.8,-17.21,-20.53,-22.77,0,*63
1483999270.24,46618,4.63,72736.8,-17.17,-20.63,-22.83,0,*61
1483999271.48,46619,4.69,72732.8,-17.17,-20.69,-22.83,0,*6A
1483999272.72,46620,4.63,72734.3,-17.17,-20.69,-22.83,0,*60
1483999273.96,46621,4.63,72732.3,-17.17,-20.63,-22.83,0,*6B
1483999275.22,46622,4.69,72736.0,-17.17,-20.79,-22.83,0,*63
1483999276.46,46623,4.63,72732.0,-17.17,-20.63,-22.83,0,*69
1483999277.76,46624,4.63,72734.3,-17.17,-20.79,-23.03,0,*6C
1483999279.02,46625,4.63,72734.8,-17.17,-20.79,-22.87,0,*60
1483999280.28,46626,4.63,72736.5,-17.17,-20.79,-22.87,0,*63
1483999281.54,46627,4.69,72734.0,-17.17,-20.79,-22.87,0,*62
1483999282.81,46628,4.63,72730.0,-17.17,-20.79,-22.97,0,*6C
1483999284.07,46629,4.63,72730.3,-17.17,-20.79,-22.97,0,*6D
1483999285.32,46630,4.63,72734.3,-17.21,-20.89,-23.09,0,*69
1483999286.59,46631,4.63,72730.3,-17.17,-20.83,-22.97,0,*61
1483999287.85,46632,4.63,72734.0,-17.17,-20.79,-22.83,0,*62
1483999289.11,46633,4.63,72730.8,-17.17,-20.39,-22.73,0,*68
1483999290.37,46634,4.63,72734.3,-17.17,-20.35,-22.27,0,*62
1483999291.61,46635,4.63,72732.0,-17.17,-20.05,-22.11,0,*65
1483999292.84,46636,4.63,72736.0,-17.17,-20.05,-22.27,0,*63
1483999294.1,46637,4.63,72738.5,-17.17,-20.19,-22.41,0,*6F
1483999295.36,46638,4.63,72738.3,-17.17,-20.19,-22.37,0,*61
1483999296.57,46639,4.69,72736.5,-17.13,-20.09,-22.37,0,*65
1483999297.78,46640,4.69,72732.3,-17.13,-20.25,-22.37,0,*65
1483999298.99,46641,4.63,72734.8,-17.13,-20.25,-22.37,0,*64
1483999300.23,46642,4.63,72736.8,-17.13,-20.35,-22.53,0,*64
1483999301.45,46643,4.63,72736.0,-17.13,-20.39,-22.53,0,*69
1483999302.7,46644,4.63,72732.0,-17.13,-20.39,-22.73,0,*6C
1483999303.96,46645,4.63,72738.0,-17.13,-20.49,-22.73,0,*6A
1483999305.2,46646,4.63,72736.5,-17.13,-20.63,-22.73,0,*61
1483999306.45,46647,4.63,72732.0,-17.13,-20.49,-22.67,0,*6D
1483999307.68,46648,4.63,72728.8,-17.13,-20.35,-22.53,0,*6E
1483999308.92,46649,4.63,72724.5,-17.13,-20.35,-22.37,0,*6D
1483999310.18,46650,4.69,72732.0,-17.11,-20.19,-22.37,0,*69
1483999311.43,46651,4.63,72724.8,-17.11,-20.43,-22.53,0,*65
1483999312.67,46652,4.69,72730.3,-17.13,-20.53,-22.83,0,*68
1483999313.94,46653,4.63,72730.0,-17.13,-20.53,-22.73,0,*66
1483999315.23,46654,4.63,72730.0,-17.11,-20.35,-22.47,0,*64
1483999316.45,46655,4.63,72728.8,-17.13,-20.43,-22.53,0,*63
1483999317.7,46656,4.69,72728.5,-17.13,-20.53,-22.83,0,*6C
1483999318.99,46657,4.63,72726.8,-17.11,-20.49,-22.77,0,*6F
1483999320.26,46658,4.69,72732.0,-17.11,-20.49,-22.63,0,*65
1483999321.5,46659,4.63,72728.3,-17.13,-20.49,-22.57,0,*61
1483999322.8,46660,4.63,72728.8,-17.11,-20.35,-22.47,0,*63
1483999324.01,46661,4.69,72734.5,-17.13,-20.25,-22.37,0,*66
1483999325.3,46662,4.69,72726.8,-17.11,-20.35,-22.47,0,*61
1483999326.53,46663,4.63,72730.5,-17.13,-20.35,-22.41,0,*64
1483999327.77,46664,4.63,72724.8,-17.13,-20.35,-22.57,0,*64
1483999329.04,46665,4.69,72730.5,-17.11,-20.49,-22.63,0,*6B
1483999330.28,46666,4.69,72728.3,-17.13,-20.69,-22.73,0,*69
1483999331.55,46667,4.63,72730.8,-17.11,-20.49,-22.67,0,*6D
1483999332.79,46668,4.63,72726.5,-17.13,-20.53,-22.57,0,*68
1483999334.04,46669,4.69,72728.3,-17.11,-20.59,-22.67,0,*62
1483999335.29,46670,4.69,72744.0,-17.11,-20.43,-22.63,0,*65
1483999336.55,46671,4.63,72730.8,-17.11,-20.19,-22.37,0,*6A
1483999337.79,46672,4.63,72738.5,-17.11,-19.95,-22.07,0,*64
1483999339.07,46673,4.69,72736.8,-17.11,-19.99,-22.17,0,*68
1483999340.33,46674,4.69,72734.5,-17.11,-20.29,-22.47,0,*6B
1483999341.57,46675,4.69,72736.8,-17.09,-20.35,-22.63,0,*68
1483999342.84,46676,4.69,72736.0,-17.11,-20.49,-22.63,0,*69
1483999344.11,46677,4.63,72730.8,-17.09,-20.49,-22.77,0,*64
1483999345.36,46678,4.69,72732.8,-17.09,-20.59,-22.77,0,*6A
1483999346.6,46679,4.63,72734.0,-17.09,-20.49,-22.67,0,*6B
1483999347.86,46680,4.69,72748.5,-17.09,-20.43,-22.47,0,*65
1483999349.1,46681,4.63,72742.5,-17.11,-20.43,-22.67,0,*6F
1483999350.39,46682,4.69,72732.8,-17.11,-20.35,-22.31,0,*6E
1483999351.68,46683,4.69,72736.3,-17.11,-20.19,-22.21,0,*60
1483999352.91,46684,4.69,72732.3,-17.09,-20.05,-22.21,0,*63
1483999354.18,46685,4.69,72732.5,-17.09,-20.19,-22.47,0,*6F
1483999355.45,46686,4.69,72730.3,-17.07,-20.29,-22.31,0,*60
1483999356.7,46687,4.69,72732.8,-17.09,-20.43,-22.47,0,*62
1483999357.94,46688,4.63,72732.8,-17.09,-20.35,-22.63,0,*6A
1483999359.16,46689,4.69,72736.5,-17.09,-20.59,-22.67,0,*65
1483999360.4,46690,4.69,72724.5,-17.09,-20.73,-22.77,0,*64
1483999361.62,46691,4.63,72738.8,-17.09,-20.63,-22.83,0,*6F
1483999362.86,46692,4.63,72738.0,-17.09,-20.79,-22.83,0,*67
1483999364.11,46693,4.63,72728.3,-17.09,-20.59,-22.73,0,*6B
1483999365.35,46694,4.63,72730.0,-17.09,-20.49,-22.63,0,*6C
1483999366.59,46695,4.63,72720.8,-17.09,-20.19,-22.37,0,*69
1483999367.82,46696,4.63,72730.5,-17.09,-20.35,-22.37,0,*64
1483999369.03,46697,4.63,72726.0,-17.09,-20.29,-22.37,0,*68
1483999370.3,46698,4.69,72738.0,-17.09,-20.15,-22.17,0,*6A
1483999371.52,46699,4.63,72728.5,-17.09,-20.43,-22.53,0,*68
1483999372.8,46700,4.69,72730.0,-17.07,-20.39,-22.47,0,*6F
1483999374.05,46701,4.63,72726.0,-17.07,-20.39,-22.53,0,*6B
1483999375.27,46702,4.63,72730.5,-17.09,-20.59,-22.67,0,*67
1483999376.54,46703,4.63,72732.8,-17.07,-20.69,-22.77,0,*6A
1483999377.78,46704,4.63,72734.3,-17.09,-20.79,-22.83,0,*69
1483999379.0,46705,4.63,72734.8,-17.09,-20.73,-22.83,0,*62
1483999380.22,46706,4.69,72734.5,-17.09,-20.63,-22.67,0,*6A
1483999381.43,46707,4.63,72734.5,-17.09,-20.63,-22.67,0,*6B
1483999382.65,46708,4.63,72728.8,-17.09,-20.73,-22.83,0,*6F
1483999383.89,46709,4.63,72730.0,-17.09,-20.35,-22.63,0,*62
1483999385.13,46710,4.69,72730.5,-17.09,-20.35,-22.53,0,*69
1483999386.35,46711,4.63,72728.3,-17.09,-20.43,-22.53,0,*69
1483999387.6,46712,4.63,72724.8,-17.09,-20.49,-22.63,0,*63
1483999388.84,46713,4.63,72726.5,-17.09,-20.63,-22.77,0,*6F
1483999390.11,46714,4.69,72732.3,-17.07,-20.69,-22.77,0,*6C
1483999391.34,46715,4.63,72730.0,-17.09,-20.89,-22.97,0,*63
1483999392.56,46716,4.69,72730.8,-17.09,-20.89,-22.97,0,*60
1483999393.8,46717,4.69,72740.0,-17.09,-20.93,-23.19,0,*6D
1483999395.08,46718,4.63,72732.5,-17.09,-21.03,-23.19,0,*6A
1483999396.32,46719,4.63,72732.0,-17.09,-21.09,-23.19,0,*61
1483999397.61,46720,4.63,72734.8,-17.11,-21.03,-23.19,0,*68
1483999398.88,46721,4.63,72728.5,-17.11,-20.93,-23.19,0,*61
1483999400.12,46722,4.69,72728.5,-17.11,-20.73,-22.83,0,*6E
1483999401.36,46723,4.63,72734.0,-17.13,-20.69,-22.73,0,*69
1483999402.61,46724,4.63,72736.8,-17.11,-20.59,-22.67,0,*6A
1483999403.85,46725,4.63,72728.0,-17.11,-20.59,-22.67,0,*6B
1483999405.15,46726,4.63,72730.8,-17.11,-20.19,-22.31,0,*6F
1483999406.38,46727,4.63,72730.5,-17.13,-20.35,-22.41,0,*65
1483999407.64,46728,4.69,72730.5,-17.11,-20.29,-22.47,0,*63
1483999408.91,46729,4.63,72728.5,-17.11,-20.49,-22.67,0,*66
1483999410.15,46730,4.63,72726.3,-17.09,-20.63,-22.77,0,*6E
1483999411.37,46731,4.63,72732.8,-17.09,-20.73,-22.83,0,*65
1483999412.64,46732,4.63,72738.3,-17.11,-20.63,-22.77,0,*65
1483999413.9,46733,4.63,72732.0,-17.11,-20.79,-22.83,0,*64
1483999415.19,46734,4.63,72738.0,-17.11,-20.79,-22.77,0,*68
1483999416.49,46735,4.69,72736.5,-17.11,-20.49,-22.77,0,*6A
1483999417.74,46736,4.63,72736.5,-17.11,-20.43,-22.63,0,*66
1483999418.99,46737,4.63,72732.8,-17.11,-20.43,-22.53,0,*64
1483999420.23,46738,4.63,72732.0,-17.09,-20.49,-22.67,0,*6F
1483999421.45,46739,4.63,72730.5,-17.09,-20.63,-22.83,0,*6C
1483999422.69,46740,4.63,72730.8,-17.09,-20.79,-22.93,0,*68
1483999423.94,46741,4.63,72734.0,-17.09,-20.79,-22.93,0,*69
1483999425.18,46742,4.69,72738.5,-17.09,-20.89,-23.03,0,*6D
1483999426.43,46743,4.63,72738.8,-17.11,-20.89,-23.13,0,*64
1483999427.73,46744,4.63,72734.8,-17.11,-21.03,-23.03,0,*61
1483999429.0,46745,4.63,72732.5,-17.11,-20.89,-23.03,0,*63
1483999430.29,46746,4.63,72734.0,-17.11,-20.79,-22.77,0,*6D
1483999431.53,46747,4.63,72734.3,-17.13,-20.83,-22.83,0,*60
1483999432.8,46748,4.69,72736.3,-17.11,-20.63,-22.77,0,*68
1483999434.05,46749,4.63,72728.8,-17.13,-20.53,-22.67,0,*69
1483999435.32,46750,4.69,72734.0,-17.11,-20.63,-22.77,0,*61
1483999436.56,46751,4.69,72734.5,-17.13,-20.79,-22.87,0,*66
1483999437.81,46752,4.69,72736.5,-17.11,-20.89,-22.97,0,*69
1483999439.06,46753,4.63,72734.0,-17.11,-20.89,-22.93,0,*6C
1483999440.32,46754,4.69,72740.0,-17.11,-20.93,-23.03,0,*68
1483999441.57,46755,4.63,72732.3,-17.13,-20.99,-22.97,0,*6D
1483999442.84,46756,4.69,72736.0,-17.11,-20.79,-22.83,0,*67
1483999444.08,46757,4.69,72732.3,-17.11,-20.73,-22.83,0,*6C
1483999445.3,46758,4.69,72732.3,-17.13,-20.63,-22.87,0,*64
1483999446.54,46759,4.63,72730.8,-17.13,-20.79,-22.87,0,*6E
1483999447.78,46760,4.69,72736.5,-17.11,-20.73,-22.83,0,*68
1483999449.02,46761,4.63,72732.3,-17.11,-20.63,-22.83,0,*68
1483999450.24,46762,4.63,72734.0,-17.13,-20.69,-22.87,0,*67
1483999451.46,46763,4.63,72734.8,-17.13,-20.39,-22.53,0,*6A
1483999452.68,46764,4.63,72734.0,-17.13,-20.39,-22.53,0,*6D
1483999453.95,46765,4.63,72730.3,-17.13,-20.53,-22.73,0,*62
1483999455.2,46766,4.63,72738.8,-17.11,-20.59,-22.63,0,*68
1483999456.44,46767,4.69,72736.5,-17.11,-20.63,-22.67,0,*64
1483999457.71,46768,4.63,72730.3,-17.11,-20.63,-22.77,0,*6A
1483999458.95,46769,4.63,72734.3,-17.11,-20.73,-22.83,0,*61
1483999460.19,46770,4.63,72728.3,-17.13,-20.79,-22.87,0,*65
1483999461.43,46771,4.69,72736.5,-17.13,-20.79,-22.87,0,*64
1483999462.7,46772,4.69,72732.5,-17.11,-20.63,-22.77,0,*61
1483999463.94,46773,4.69,72738.8,-17.11,-20.73,-22.83,0,*6A
1483999465.21,46774,4.69,72736.5,-17.11,-20.79,-22.93,0,*66
1483999466.43,46775,4.63,72734.8,-17.13,-20.93,-22.97,0,*65
1483999467.65,46776,4.63,72740.0,-17.13,-20.93,-23.09,0,*60
1483999468.9,46777,4.63,72738.8,-17.13,-20.99,-23.09,0,*6B
1483999470.14,46778,4.69,72740.0,-17.13,-20.93,-23.03,0,*64
1483999471.39,46779,4.63,72738.5,-17.13,-20.83,-22.87,0,*69
1483999472.61,46780,4.69,72734.5,-17.13,-20.63,-22.87,0,*61
1483999473.85,46781,4.69,72738.5,-17.13,-20.79,-22.87,0,*6B
1483999475.09,46782,4.63,72740.8,-17.13,-20.79,-22.83,0,*6C
1483999476.34,46783,4.69,72738.5,-17.13,-20.83,-22.97,0,*6D
1483999477.58,46784,4.63,72738.0,-17.13,-20.83,-22.97,0,*6A
1483999478.86,46785,4.69,72740.8,-17.13,-20.99,-23.19,0,*67
1483999480.1,46786,4.63,72736.8,-17.11,-20.93,-23.13,0,*66
1483999481.34,46787,4.69,72740.0,-17.13,-21.13,-23.19,0,*66
1483999482.59,46788,4.63,72736.0,-17.13,-20.99,-23.09,0,*6B
1483999483.86,46789,4.63,72736.5,-17.17,-21.09,-23.19,0,*67
1483999485.13,46790,4.63,72738.3,-17.17,-20.99,-23.09,0,*66
1483999486.37,46791,4.63,72736.8,-17.17,-21.09,-23.09,0,*6F
1483999487.61,46792,4.63,72734.3,-17.17,-20.93,-22.97,0,*68
1483999488.87,46793,4.69,72738.5,-17.21,-20.99,-23.13,0,*6B
1483999490.14,46794,4.63,72738.0,-17.17,-20.93,-23.03,0,*62
1483999491.41,46795,4.63,72738.0,-17.17,-20.83,-22.97,0,*6E
1483999492.68,46796,4.69,72742.0,-17.17,-20.83,-22.97,0,*6D
1483999493.95,46797,4.63,72740.5,-17.21,-20.99,-23.09,0,*64
1483999495.21,46798,4.69,72746.3,-17.21,-20.99,-23.09,0,*6B
1483999496.48,46799,4.63,72738.3,-17.21,-21.03,-23.13,0,*63
1483999497.77,46800,4.63,72738.3,-17.21,-21.03,-23.23,0,*6F
1483999499.06,46801,4.63,72740.3,-17.21,-21.03,-23.23,0,*6E
1483999500.35,46802,4.69,72738.0,-17.21,-20.99,-23.03,0,*6D
1483999501.59,46803,4.63,72736.3,-17.21,-20.59,-22.87,0,*6D
1483999502.84,46804,4.69,72732.3,-17.21,-20.59,-22.63,0,*60
1483999504.1,46805,4.63,72730.5,-17.21,-20.29,-22.47,0,*60
1483999505.33,46806,4.69,72732.8,-17.17,-20.39,-22.41,0,*61
1483999506.6,46807,4.69,72734.0,-17.17,-20.49,-22.57,0,*60
1483999507.86,46808,4.69,72740.5,-17.17,-20.35,-22.57,0,*64
1483999509.15,46809,4.63,72732.5,-17.17,-20.53,-22.73,0,*63
1483999510.38,46810,4.69,72742.3,-17.21,-20.73,-22.93,0,*62
1483999511.68,46811,4.69,72740.5,-17.17,-20.83,-23.03,0,*61
1483999512.95,46812,4.63,72742.3,-17.17,-20.83,-22.97,0,*6E
1483999514.24,46813,4.63,72734.3,-17.17,-20.83,-23.03,0,*63
1483999515.53,46814,4.69,72736.8,-17.21,-20.99,-23.23,0,*68
1483999516.8,46815,4.69,72736.8,-17.21,-20.99,-23.09,0,*61
1483999518.09,46816,4.69,72736.8,-17.17,-20.83,-23.03,0,*66
1483999519.36,46817,4.63,72736.0,-17.21,-21.03,-23.09,0,*61
1483999520.62,46818,4.69,72738.3,-17.21,-21.03,-23.13,0,*65
1483999521.88,46819,4.69,72736.8,-17.21,-21.13,-23.29,0,*6C
1483999523.14,46820,4.69,72740.0,-17.21,-21.03,-23.13,0,*6E
1483999524.39,46821,4.63,72738.5,-17.21,-20.89,-23.09,0,*67
1483999525.63,46822,4.63,72738.8,-17.17,-20.93,-22.97,0,*6C
1483999526.92,46823,4.63,72740.3,-17.17,-20.83,-23.03,0,*60
1483999528.17,46824,4.63,72742.3,-17.21,-20.89,-23.09,0,*62
1483999529.43,46825,4.63,72738.5,-17.21,-21.03,-23.13,0,*6B
1483999530.66,46826,4.69,72742.8,-17.23,-21.09,-23.29,0,*69
1483999531.95,46827,4.69,72740.5,-17.21,-21.03,-23.23,0,*6A
1483999533.2,46828,4.63,72744.0,-17.17,-21.09,-23.09,0,*62
1483999534.43,46829,4.69,72738.0,-17.23,-21.17,-23.29,0,*69
1483999535.67,46830,4.69,72740.8,-17.23,-21.17,-23.29,0,*61
1483999536.9,46831,4.63,72742.5,-17.23,-21.17,-23.29,0,*60
1483999538.14,46832,4.69,72742.0,-17.23,-21.17,-23.29,0,*63
1483999539.4,46833,4.69,72746.3,-17.23,-21.03,-23.19,0,*64
1483999540.69,46834,4.69,72746.3,-17.25,-21.03,-23.29,0,*66
1483999541.98,46835,4.69,72746.3,-17.25,-21.03,-23.19,0,*64
1483999543.24,46836,4.69,72740.0,-17.25,-21.09,-23.19,0,*6D
1483999544.46,46837,4.63,72746.5,-17.23,-20.93,-23.09,0,*69
1483999545.67,46838,4.69,72742.0,-17.23,-20.93,-22.93,0,*64
1483999546.94,46839,4.63,72744.0,-17.25,-20.79,-22.97,0,*63
1483999548.16,46840,4.69,72742.0,-17.23,-20.89,-22.97,0,*64
1483999549.4,46841,4.63,72740.8,-17.23,-21.03,-23.09,0,*60
1483999550.64,46842,4.63,72742.0,-17.25,-20.93,-23.09,0,*6D
1483999551.88,46843,4.63,72742.8,-17.25,-20.93,-23.09,0,*6C
1483999553.1,46844,4.63,72740.3,-17.23,-20.93,-23.09,0,*6D
1483999554.34,46845,4.63,72736.0,-17.25,-20.93,-22.97,0,*6C
1483999555.58,46846,4.69,72740.0,-17.25,-20.93,-22.97,0,*6F
1483999556.8,46847,4.63,72738.5,-17.23,-20.93,-22.97,0,*68
1483999558.04,46848,4.63,72742.0,-17.25,-20.93,-22.97,0,*61
1483999559.28,46849,4.69,72746.5,-17.23,-21.03,-23.09,0,*68
1483999560.54,46850,4.63,72742.5,-17.25,-21.03,-23.13,0,*6D
1483999561.81,46851,4.69,72744.5,-17.25,-21.03,-23.09,0,*67
1483999563.05,46852,4.63,72742.3,-17.25,-20.93,-23.13,0,*67
1483999564.29,46853,4.69,72742.5,-17.25,-20.93,-23.09,0,*6D
1483999565.56,46854,4.69,72742.5,-17.25,-21.03,-23.09,0,*62
1483999566.8,46855,4.69,72746.3,-17.25,-20.93,-23.09,0,*6B
1483999568.01,46856,4.69,72746.5,-17.23,-21.09,-23.13,0,*67
1483999569.25,46857,4.63,72736.5,-17.27,-21.09,-23.19,0,*68
1483999570.49,46858,4.63,72742.5,-17.27,-21.09,-23.19,0,*67
1483999571.71,46859,4.63,72736.5,-17.27,-20.93,-23.09,0,*65
1483999572.98,46860,4.69,72742.0,-17.25,-21.03,-23.13,0,*6E
1483999574.2,46861,4.63,72738.8,-17.27,-20.93,-22.93,0,*6C
1483999575.42,46862,4.69,72740.0,-17.27,-20.93,-22.97,0,*6B
1483999576.64,46863,4.63,72740.3,-17.27,-20.93,-23.09,0,*6C
1483999577.88,46864,4.63,72740.0,-17.27,-21.03,-23.09,0,*63
1483999579.13,46865,4.63,72740.0,-17.27,-20.79,-22.93,0,*6C
1483999580.37,46866,4.63,72742.8,-17.27,-20.63,-22.77,0,*6E
1483999581.61,46867,4.69,72744.5,-17.27,-20.79,-22.97,0,*6A
1483999582.84,46868,4.69,72744.0,-17.27,-20.89,-22.97,0,*6A
1483999584.08,46869,4.69,72740.8,-17.27,-20.73,-22.77,0,*60
1483999585.29,46870,4.63,72742.3,-17.27,-20.73,-22.93,0,*62
1483999586.53,46871,4.63,72740.3,-17.25,-20.73,-22.93,0,*61
1483999587.78,46872,4.69,72746.3,-17.25,-20.89,-22.97,0,*63
1483999589.02,46873,4.63,72744.8,-17.27,-21.03,-23.13,0,*6E
1483999590.24,46874,4.63,72740.0,-17.27,-20.89,-23.09,0,*61
1483999591.47,46875,4.69,72744.3,-17.27,-20.89,-23.09,0,*60
1483999592.68,46876,4.63,72742.3,-17.27,-21.09,-23.13,0,*61
1483999593.93,46877,4.63,72738.8,-17.27,-21.03,-23.13,0,*6A
1483999595.17,46878,4.63,72740.8,-17.27,-21.09,-23.19,0,*65
1483999596.41,46879,4.69,72744.3,-17.27,-21.09,-23.19,0,*64
1483999597.65,46880,4.69,72744.0,-17.27,-21.09,-23.19,0,*62
1483999598.89,46881,4.63,72740.3,-17.27,-20.93,-23.03,0,*6A
1483999600.14,46882,4.63,72738.0,-17.27,-20.79,-22.97,0,*61
1483999601.43,46883,4.63,72742.0,-17.29,-20.83,-23.03,0,*67
1483999602.7,46884,4.63,72740.3,-17.29,-20.93,-23.03,0,*61
1483999603.91,46885,4.69,72742.8,-17.27,-20.63,-22.67,0,*62
1483999605.14,46886,4.63,72742.0,-17.27,-20.59,-22.67,0,*68
1483999606.35,46887,4.69,72744.3,-17.27,-20.73,-22.83,0,*6B
1483999607.57,46888,4.63,72740.0,-17.27,-20.89,-23.09,0,*62
1483999608.84,46889,4.63,72740.8,-17.29,-21.03,-23.13,0,*65
1483999610.09,46890,4.69,72744.0,-17.27,-21.03,-23.09,0,*68
1483999611.34,46891,4.69,72742.0,-17.27,-21.03,-23.09,0,*69
1483999612.55,46892,4.69,72746.8,-17.27,-20.93,-23.13,0,*69
1483999613.77,46893,4.63,72746.3,-17.27,-20.93,-23.09,0,*63
1483999614.99,46894,4.69,72744.5,-17.27,-20.93,-23.09,0,*64
1483999616.24,46895,4.69,72746.8,-17.27,-21.03,-23.13,0,*66
1483999617.5,46896,4.63,72744.5,-17.29,-20.93,-23.03,0,*62
1483999618.77,46897,4.69,72744.0,-17.29,-20.93,-23.03,0,*63
1483999620.03,46898,4.63,72736.0,-17.29,-20.79,-22.87,0,*65
1483999621.27,46899,4.63,72742.0,-17.27,-20.79,-22.97,0,*6B
1483999622.57,46900,4.69,72746.8,-17.29,-20.83,-23.03,0,*6D
1483999623.79,46901,4.63,72746.8,-17.27,-20.93,-22.97,0,*6F
1483999625.0,46902,4.63,72740.3,-17.27,-20.93,-23.13,0,*61
1483999626.27,46903,4.69,72746.8,-17.29,-21.09,-23.19,0,*66
1483999627.51,46904,4.63,72738.8,-17.29,-20.93,-23.09,0,*62
1483999628.76,46905,4.63,72742.0,-17.27,-20.99,-23.09,0,*67
1483999630.03,46906,4.63,72738.3,-17.29,-20.93,-23.03,0,*6A
1483999631.26,46907,4.63,72738.8,-17.29,-21.09,-23.13,0,*68
1483999632.5,46908,4.63,72740.5,-17.29,-21.09,-23.13,0,*67
1483999633.74,46909,4.69,72746.5,-17.29,-21.09,-23.13,0,*66
1483999635.0,46910,4.69,72744.3,-17.29,-21.09,-23.19,0,*64
1483999636.27,46911,4.69,72744.5,-17.29,-20.99,-23.13,0,*67
1483999637.51,46912,4.63,72740.5,-17.29,-20.93,-23.13,0,*6E
1483999638.78,46913,4.63,72738.0,-17.29,-20.83,-22.97,0,*63
1483999640.04,46914,4.63,72736.3,-17.29,-20.79,-22.97,0,*61
1483999641.31,46915,4.69,72738.3,-17.29,-20.93,-23.03,0,*68
1483999642.6,46916,4.63,72740.0,-17.29,-20.99,-23.19,0,*6A
1483999643.87,46917,4.63,72740.3,-17.29,-20.99,-23.13,0,*61
1483999645.16,46918,4.69,72742.5,-17.29,-20.99,-23.19,0,*64
1483999646.41,46919,4.69,72744.8,-17.27,-21.03,-23.09,0,*68
1483999647.68,46920,4.69,72746.3,-17.29,-20.99,-23.13,0,*65
1483999648.92,46921,4.69,72738.0,-17.29,-20.93,-23.13,0,*6E
1483999650.14,46922,4.69,72742.3,-17.27,-20.89,-22.97,0,*65
1483999651.44,46923,4.69,72736.0,-17.29,-20.99,-23.03,0,*67
1483999652.7,46924,4.69,72740.8,-17.29,-21.09,-23.03,0,*68
1483999653.99,46925,4.63,72738.8,-17.29,-20.99,-23.03,0,*61
1483999655.26,46926,4.69,72740.5,-17.29,-20.99,-23.13,0,*63
1483999656.51,46927,4.69,72740.0,-17.27,-21.03,-23.09,0,*65
1483999657.77,46928,4.69,72742.0,-17.29,-21.09,-23.19,0,*6F
1483999659.03,46929,4.69,72742.5,-17.29,-21.09,-23.19,0,*6E
1483999660.3,46930,4.63,72738.0,-17.29,-20.99,-23.13,0,*64
1483999661.54,46931,4.69,72740.0,-17.29,-21.09,-23.13,0,*6D
1483999662.78,46932,4.69,72736.3,-17.29,-21.13,-23.13,0,*65
1483999664.04,46933,4.69,72746.5,-17.29,-21.09,-23.19,0,*65
1483999665.31,46934,4.63,72738.0,-17.29,-20.99,-23.13,0,*60
1483999666.53,46935,4.63,72736.8,-17.27,-20.93,-22.93,0,*6C
1483999667.82,46936,4.69,72740.0,-17.29,-20.99,-23.03,0,*63
1483999669.09,46937,4.69,72744.3,-17.29,-20.99,-23.13,0,*63
1483999670.33,46938,4.63,72742.3,-17.29,-20.93,-23.13,0,*66
1483999671.57,46939,4.69,72742.5,-17.29,-21.09,-23.13,0,*65
1483999672.84,46940,4.69,72738.3,-17.29,-21.13,-23.19,0,*6A
1483999674.1,46941,4.63,72738.5,-17.29,-21.13,-23.19,0,*6B
1483999675.37,46942,4.63,72734.8,-17.29,-21.09,-23.19,0,*63
1483999676.64,46943,4.69,72738.0,-17.31,-20.99,-23.19,0,*63
1483999677.88,46944,4.69,72742.0,-17.31,-20.99,-23.13,0,*6E
1483999679.12,46945,4.69,72740.0,-17.31,-20.93,-23.03,0,*64
1483999680.33,46946,4.69,72736.5,-17.31,-20.93,-22.97,0,*6B
1483999681.6,46947,4.69,72740.3,-17.31,-20.99,-23.03,0,*6C
1483999682.87,46948,4.69,72740.3,-17.31,-20.99,-23.03,0,*63
1483999684.11,46949,4.69,72736.5,-17.31,-20.99,-22.97,0,*6E
1483999685.38,46950,4.63,72734.5,-17.33,-20.99,-23.09,0,*62
1483999686.6,46951,4.69,72740.3,-17.31,-20.93,-22.97,0,*6D
1483999687.86,46952,4.69,72740.8,-17.33,-20.69,-22.77,0,*67
1483999689.1,46953,4.69,72746.3,-17.29,-20.69,-22.83,0,*66
1483999690.34,46954,4.63,72738.8,-17.33,-20.89,-23.09,0,*67
1483999691.58,46955,4.69,72742.5,-17.31,-20.93,-23.03,0,*65
1483999692.8,46956,4.69,72740.8,-17.31,-20.93,-22.97,0,*6A
1483999694.02,46957,4.63,72738.0,-17.31,-20.93,-22.97,0,*6B
1483999695.26,46958,4.69,72734.0,-17.31,-20.93,-23.03,0,*68
1483999696.52,46959,4.69,72740.5,-17.33,-20.83,-22.87,0,*67
1483999697.73,46960,4.69,72746.5,-17.31,-20.69,-22.83,0,*6F
1483999698.97,46961,4.69,72738.0,-17.31,-20.79,-22.83,0,*6F
1483999700.18,46962,4.69,72738.5,-17.31,-20.69,-22.87,0,*69